704  
ASUS46 KSEW 170920  
RWRWA  
 
WASHINGTON REGIONAL WEATHER ROUNDUP  
NATIONAL WEATHER SERVICE SEATTLE WA  
200 AM PDT MON JUN 17 2024  
 
NOTE:"FAIR" INDICATES FEW OR NO CLOUDS BELOW 12,000 FEET WITH NO  
SIGNIFICANT WEATHER AND/OR S TO VISIBILITY
.  
 
WAZ507-509-555>559-171000-  
SEATTLE, TACOMA, EVERETT, AND VICINITY  
 
CITY SKY/WX TMP DP RH WIND PRES REMARKS
 
EVERETT LGT RAIN 52 49 89 N6 30.00S TC 11  
BOEING FIELD CLOUDY 54 42 64 CALM 30.00S TC 12  
RENTON CLOUDY 51 45 79 CALM 30.01R TC 11  
SEATAC AIRPORT LGT RAIN 51 46 83 SW3 30.01R TC 11  
JBLM-MCCHORD MOCLDY 47 45 91 CALM 30.00S TC 9  
PUYALLUP CLOUDY 50 46 87 CALM 30.02S TC 10  
BREMERTON CLOUDY N/A N/A N/A MISG N/A  
JBLM-FT LEWIS CLOUDY 47 44 88 CALM 29.99R TC 9  
TACOMA NARROWS CLOUDY 51 48 89 CALM 30.01S TC 11  

 
 
WAZ001-503-506-510-514-515-171000-  
NORTH INTERIOR  
 
CITY SKY/WX TMP DP RH WIND PRES REMARKS
 
BELLINGHAM CLOUDY 51 48 89 SE6 29.97S TC 11  
FRIDAY HARBOR CLOUDY 53 47 79 CALM 29.98S TC 12  
EASTSOUND LGT RAIN 54 48 82 S3 29.95F TC 12  
PORT ANGELES CLOUDY 54 45 71 W9 29.98F TC 12  
EDIZ HOOK CLOUDY 53 47 78 W12 29.98F TC 12  
PORT TOWNSEND LGT RAIN 50 50 100 CALM 29.98S TC 10  
NAS WHIDBEY LGT RAIN 50 49 96 W13G22 29.98S TC 10  
ARLINGTON LGT RAIN 50 48 93 SE5 30.00S TC 10  
BURLINGTON CLOUDY 52 52 100 CALM 29.98S TC 11  

 
 
WAZ020-022-039-040-504-511-512-171000-  
SOUTHWEST INTERIOR  
 
CITY SKY/WX TMP DP RH WIND PRES REMARKS
 
SHELTON CLOUDY 45 44 97 CALM 29.99S TC 7  
OLYMPIA MOCLDY 46 44 93 S5 30.01F TC 8  
CHEHALIS CLOUDY 46 46 100 SW3 30.03S TC 8  
KELSO CLOUDY 49 46 90 NE3 30.05S TC 9  
VANCOUVER MOCLDY 49 43 80 CALM 30.06 TC 9  
SCAPPOOSE, OR PTCLDY N/A N/A N/A CALM 30.04R  
PORTLAND, OR PTCLDY 52 44 74 CALM 30.05R TC 11  

 
 
WAZ021-516-517-171000-  
WASHINGTON COAST  
 
CITY SKY/WX TMP DP RH WIND PRES REMARKS
 
FORKS CLOUDY 52 49 89 S3 30.02S TC 11  
HOQUIAM PTCLDY 52 48 86 NW8 30.03S TC 11  
ASTORIA, OR LGT RAIN 53 48 83 NW8 30.05R TC 12  

 
 
WAZ019-023-024-040-567>569-171000-  
CASCADE MOUNTAINS AND COLUMBIA GORGE  
 
CITY SKY/WX TMP DP RH WIND PRES REMARKS
 
STAMPEDE PASS NOT AVBL  
TROUTDALE, OR CLOUDY 54 44 69 VRB3 30.05R TC 12  
HOOD RIVER, OR MOCLDY 50 41 71 NW3 29.98R TC 10  
THE DALLES, OR PTCLDY 54 39 57 W13G23 29.94S TC 12  

 
 
WAZ026-027-041>044-520-521-171000-  
EAST SLOPES  
 
CITY SKY/WX TMP DP RH WIND PRES REMARKS
 
OMAK MOCLDY 50 39 66 NW6 29.86F TC 10  
WENATCHEE MOCLDY 50 38 63 NW7 29.88S TC 10  
ELLENSBURG PTCLDY 49 36 61 NW20G26 29.88S TC 9  
YAKIMA PTCLDY 52 34 50 NW9G17 29.90R TC 11  
SUNNYSIDE ARPT CLEAR 44 38 78 CALM 29.89S TC 7  
YAKIMA TC FAIR 50 33 51 CALM 29.85R TC 10  

 
 
WAZ028-034-035-171000-  
COLUMBIA BASIN  
 
CITY SKY/WX TMP DP RH WIND PRES REMARKS
 
EPHRATA PTCLDY 53 35 50 NW8 29.84F TC 12  
MOSES LAKE PTCLDY 44 34 67 N9 29.86S TC 7  
PASCO PTCLDY 46 41 82 NW3 29.87S TC 8  
RICHLAND ARPT PTCLDY 47 40 77 W6 29.87S TC 8  
HERMISTON, OR PTCLDY 51 40 65 SW10 29.88S TC 11  

 
 
WAZ036>038-171000-  
NORTHEAST WASHINGTON  
 
CITY SKY/WX TMP DP RH WIND PRES REMARKS
 
SPOKANE GEIGER MOCLDY 48 36 63 NE7 29.83F TC 9  
SPOKANE FELTS PTCLDY 46 40 79 CALM 29.84F TC 8  
FAIRCHILD AFB CLOUDY 44 36 73 N6 29.82F TC 7  
COEURDALENE,ID PTCLDY 43 37 79 NE9 29.84F TC 6  
DEER PARK PTCLDY 41 36 82 N6 29.85F TC 5  

 
 
WAZ029>033-171000-  
SOUTHEAST WASHINGTON  
 
CITY SKY/WX TMP DP RH WIND PRES REMARKS
 
PULLMAN CLOUDY 43 34 70 N6 29.84S TC 6  
LEWISTON, ID CLOUDY 54 38 54 SW9 29.82S TC 12  
WALLA WALLA MOCLDY 50 39 66 S8 29.88R TC 10  
PENDLETON, OR MOCLDY 52 37 56 W16 29.88F TC 11  

 
 
 
CLICK HERE TO GO TO PREVIOUS BULLETINS.

The Nexlab WA Page Main Text Page